AirNav   Pilot Hours Calculator
 
 1215 users online  

31TA Houston Methodist The Woodlands Hospital Heliport
The Woodlands, Texas, USA

GOING TO THE WOODLANDS?


FAA INFORMATION EFFECTIVE 19 MAY 2022

Location

FAA Identifier: 31TA
Lat/Long: 30-12-14.8600N 095-27-09.4800W
30-12.247667N 095-27.158000W
30.2041278,-95.4526333
(estimated)
Elevation: 128 ft. / 39.0 m (surveyed)
From city: 3 miles N of THE WOODLANDS, TX
Time zone: UTC -5 (UTC -6 during Standard Time)
Zip code: 77385

Heliport Operations

Heliport use: Private use. Permission required prior to landing
Activation date: 12/2015
Control tower: no
ARTCC: HOUSTON CENTER
FSS: MONTGOMERY COUNTY FLIGHT SERVICE STATION
Attendance: CONTINUOUS
Wind indicator: yes
Segmented circle: no
Lights: SS-SR

Heliport Communications

WX ASOS at CXO (9 nm N): PHONE 936-760-4237
WX ASOS at DWH (10 nm SW): PHONE 281-251-7853
WX ASOS at IAH (14 nm SE): PHONE 281-443-6397

Nearby radio navigation aids

VOR radial/distance  VOR name  Freq  Var
IAHr334/15.8HUMBLE VORTAC116.6005E
TNVr091/31.8NAVASOTA VOR/DME115.9008E

 
NDB name  Hdg/Dist  Freq  Var  ID
ALIBI170/13.728105ECX -.-. -..-
HUNTSVILLE161/33.030806EUTS ..- - ...

Heliport Services

Runway Information

Helipad H1

Dimensions: 45 x 45 ft. / 14 x 14 m
Surface: concrete
Runway edge lights: PERI
Traffic pattern: leftleft

Heliport Ownership and Management from official FAA records

Ownership: Privately-owned
OWNER CONTACT: KYLE ROTH
Owner: HOUSTON METHODIST HOSPITAL
6565 FANNIN STREET MGJB-002
HOUSTON, TX 77030
Phone 713-441-1325
Manager: KENT TRAMMEL
17201 INTERSTATE 45 SOUTH
CONROE, TX 77385
Phone 936-270-2000

Additional Remarks

FOR CD CTC HOUSTON ARTCC AT 281-230-5622.

Instrument Procedures

There are no published instrument procedures at 31TA.

Some nearby airports with instrument procedures:

KCXO - Conroe/North Houston Regional Airport (9 nm N)
KDWH - David Wayne Hooks Memorial Airport (10 nm SW)
KIAH - George Bush Intercontinental/Houston Airport (14 nm SE)
6R3 - Cleveland Municipal Airport (25 nm E)
KIWS - West Houston Airport (26 nm SW)
 
Loc | Ops | Rwys | IFR | FBO | Links
Com | Nav | Svcs | Stats | Notes
Aerial photo
No photo
 
Airport distance calculator
Flying to Houston Methodist The Woodlands Hospital Heliport? Find the distance to fly.

From to 31TA

Sunrise and sunset
Times for 22-May-2022
 Local
(UTC-5)
 Zulu
(UTC)
Morning civil twilight05:5910:59
Sunrise06:2511:25
Sunset20:1201:12
Evening civil twilight20:3801:38

Current date and time
Zulu (UTC)  22-May-2022 17:17:45
Local (UTC-5)  22-May-2022 12:17:45
 
METAR
KCXO 
9nm N 
221653Z 36005KT 10SM BKN016 OVC022 23/21 A3017 RMK AO2 SLP212 T02280206
KDWH 
10nm SW 
221253Z 09016G26KT 4SM -RA BR BKN120 21/21 A3008 RMK AO2 PK WND 10026/1249 PRESFR SLP183 P0015 T02110206
KIAH 
13nm S 
221653Z 03014KT 10SM FEW016 BKN140 BKN250 26/20 A3013 RMK AO2 SLP203 T02560200 $
TAF
KCXO 
9nm N 
221446Z 2215/2312 32006KT P6SM FEW005 SCT022 BKN120 FM221800 36006KT P6SM SCT035 BKN110 FM230200 01004KT P6SM BKN050 FM230600 01004KT P6SM SCT006 BKN015
KIAH 
13nm S 
221513Z 2215/2318 32007G17KT P6SM SCT025 BKN050 BKN130 FM221800 04012KT P6SM SCT035 BKN150 FM230000 03008KT P6SM SCT030 FM230600 04005KT P6SM SCT020 FM231500 06009KT P6SM SCT030
NOTAMs
Click for the latest NOTAMs
NOTAMs are issued by the DoD/FAA and will open in a separate window not controlled by AirNav.

 

 
 

Would you like to see your business listed on this page?

 If your business provides an interesting product or service to pilots, flight crews, aircraft, or users of the Houston Methodist The Woodlands Hospital Heliport, you should consider listing it here.  To start the listing process, click on the button below
 
Add a business
 

Other Pages about Houston Methodist The Woodlands Hospital Heliport

Update a link
 
Copyright © AirNav, LLC. All rights reserved. Privacy Policy  Contact